GLO1826 SBBR-SBSV

Flight info

Callsign GLO1826
Flight time 1h 30m
Altitude 37000
Route UGTAK UZ19 DOTBI
Aircraft B38M/M-SDFGHIJ4J7KLORWXY/LB1

Departure

Time 2026-05-04 00:35
Airport Presidente Juscelino Kubitschek International Airport (SBBR)

Arrival

Time 2026-05-04 02:06
Airport Deputado Luiz Eduardo Magalhães International Airport (SBSV)
Time Latitude Longitude Altitude Speed Heading
2026-05-04 00:17 -15.86706 -47.91844 3474 ft 0 kts 176°
2026-05-04 00:28 -15.86699 -47.91844 3474 ft 3 kts 175°
2026-05-04 00:28 -15.86677 -47.91847 3472 ft 3 kts 172°
2026-05-04 00:28 -15.86655 -47.91849 3474 ft 3 kts 181°
2026-05-04 00:28 -15.86635 -47.91845 3471 ft 2 kts 212°
2026-05-04 00:29 -15.86620 -47.91833 3470 ft 3 kts 236°
2026-05-04 00:29 -15.86612 -47.91813 3473 ft 3 kts 261°
2026-05-04 00:29 -15.86610 -47.91791 3473 ft 2 kts 266°
2026-05-04 00:29 -15.86610 -47.91790 3473 ft 0 kts 266°
2026-05-04 00:31 -15.86611 -47.91807 3472 ft 7 kts 266°
2026-05-04 00:32 -15.86618 -47.91899 3474 ft 17 kts 265°
2026-05-04 00:32 -15.86628 -47.92031 3474 ft 19 kts 266°
2026-05-04 00:32 -15.86633 -47.92158 3474 ft 17 kts 281°
2026-05-04 00:32 -15.86584 -47.92274 3471 ft 19 kts 300°
2026-05-04 00:33 -15.86529 -47.92402 3471 ft 21 kts 272°
2026-05-04 00:33 -15.86548 -47.92673 3466 ft 20 kts 265°
2026-05-04 00:33 -15.86490 -47.92767 3462 ft 17 kts 352°
2026-05-04 00:34 -15.86369 -47.92742 3462 ft 13 kts 28°
2026-05-04 00:34 -15.86353 -47.92705 3463 ft 0 kts 86°
2026-05-04 00:34 -15.86353 -47.92700 3463 ft 2 kts 86°
2026-05-04 00:34 -15.86348 -47.92614 3462 ft 36 kts 86°
2026-05-04 00:35 -15.86316 -47.92117 3469 ft 102 kts 85°
2026-05-04 00:35 -15.86255 -47.91169 3471 ft 158 kts 86°
2026-05-04 00:35 -15.86165 -47.89900 3687 ft 184 kts 85°
2026-05-04 00:35 -15.86004 -47.88619 4583 ft 175 kts 85°
2026-05-04 00:36 -15.85923 -47.87295 5117 ft 193 kts 89°
2026-05-04 00:36 -15.85859 -47.85833 5577 ft 213 kts 89°
2026-05-04 00:36 -15.85776 -47.84215 6031 ft 234 kts 87°
2026-05-04 00:36 -15.85676 -47.82461 6495 ft 254 kts 87°
2026-05-04 00:37 -15.85562 -47.80562 7024 ft 270 kts 86°
2026-05-04 00:37 -15.85440 -47.78608 7843 ft 272 kts 86°
2026-05-04 00:37 -15.85314 -47.76626 8598 ft 278 kts 86°
2026-05-04 00:37 -15.85185 -47.74605 8924 ft 281 kts 87°
2026-05-04 00:38 -15.85066 -47.72601 8982 ft 282 kts 89°
2026-05-04 00:38 -15.85088 -47.70571 8998 ft 281 kts 91°
2026-05-04 00:38 -15.85115 -47.68536 8996 ft 281 kts 91°
2026-05-04 00:38 -15.85134 -47.66505 9002 ft 281 kts 91°
2026-05-04 00:39 -15.85149 -47.64480 9002 ft 281 kts 91°
2026-05-04 00:39 -15.85163 -47.62447 9003 ft 281 kts 91°
2026-05-04 00:39 -15.85176 -47.60414 9002 ft 282 kts 91°
2026-05-04 00:39 -15.85188 -47.58382 8994 ft 282 kts 91°
2026-05-04 00:40 -15.84878 -47.56386 9553 ft 279 kts 68°
2026-05-04 00:40 -15.83808 -47.54688 10248 ft 290 kts 47°
2026-05-04 00:40 -15.82175 -47.53358 10702 ft 306 kts 37°
2026-05-04 00:40 -15.80395 -47.52071 11270 ft 316 kts 36°
2026-05-04 00:41 -15.78583 -47.50775 12087 ft 317 kts 36°
2026-05-04 00:41 -15.76769 -47.49488 12846 ft 323 kts 36°
2026-05-04 00:41 -15.74903 -47.48169 13619 ft 327 kts 36°
2026-05-04 00:41 -15.73005 -47.46831 14371 ft 332 kts 35°
2026-05-04 00:42 -15.71077 -47.45473 15111 ft 337 kts 35°
2026-05-04 00:42 -15.69122 -47.44096 15863 ft 342 kts 35°
2026-05-04 00:42 -15.67135 -47.42698 16570 ft 347 kts 34°
2026-05-04 00:42 -15.65120 -47.41280 17226 ft 352 kts 34°
2026-05-04 00:43 -15.63073 -47.39838 17896 ft 357 kts 34°
2026-05-04 00:43 -15.61004 -47.38383 18538 ft 362 kts 34°
2026-05-04 00:43 -15.58908 -47.36910 19178 ft 365 kts 34°
2026-05-04 00:43 -15.56841 -47.35418 19792 ft 368 kts 39°
2026-05-04 00:44 -15.55138 -47.33434 20374 ft 371 kts 58°
2026-05-04 00:44 -15.53768 -47.31145 20887 ft 376 kts 58°
2026-05-04 00:44 -15.52392 -47.28817 21427 ft 380 kts 58°
2026-05-04 00:44 -15.51015 -47.26461 21946 ft 385 kts 59°
2026-05-04 00:45 -15.49629 -47.24066 22506 ft 387 kts 58°
2026-05-04 00:45 -15.48241 -47.21661 23052 ft 390 kts 58°
2026-05-04 00:45 -15.46848 -47.19240 23564 ft 392 kts 58°
2026-05-04 00:45 -15.45441 -47.16796 24046 ft 396 kts 58°
2026-05-04 00:46 -15.44026 -47.14337 24511 ft 399 kts 58°
2026-05-04 00:46 -15.42597 -47.11854 24960 ft 403 kts 58°
2026-05-04 00:46 -15.41171 -47.09379 25391 ft 406 kts 58°
2026-05-04 00:46 -15.39719 -47.06860 25828 ft 410 kts 58°
2026-05-04 00:47 -15.38246 -47.04304 26210 ft 414 kts 58°
2026-05-04 00:47 -15.36762 -47.01731 26629 ft 417 kts 58°
2026-05-04 00:47 -15.35269 -46.99142 27017 ft 421 kts 58°
2026-05-04 00:47 -15.33760 -46.96528 27423 ft 424 kts 58°
2026-05-04 00:48 -15.32242 -46.93897 27807 ft 427 kts 58°
2026-05-04 00:48 -15.30710 -46.91245 28161 ft 430 kts 58°
2026-05-04 00:48 -15.29169 -46.88577 28506 ft 434 kts 58°
2026-05-04 00:48 -15.27612 -46.85882 28863 ft 437 kts 59°
2026-05-04 00:49 -15.26048 -46.83177 29221 ft 439 kts 59°
2026-05-04 00:49 -15.24468 -46.80444 29549 ft 443 kts 59°
2026-05-04 00:49 -15.22880 -46.77700 29877 ft 446 kts 59°
2026-05-04 00:49 -15.21282 -46.74939 30210 ft 448 kts 59°
2026-05-04 00:50 -15.19674 -46.72162 30536 ft 451 kts 59°
2026-05-04 00:50 -15.18054 -46.69364 30852 ft 454 kts 59°
2026-05-04 00:50 -15.16448 -46.66591 31175 ft 456 kts 58°
2026-05-04 00:50 -15.14806 -46.63759 31476 ft 459 kts 58°
2026-05-04 00:51 -15.13157 -46.60913 31762 ft 462 kts 58°
2026-05-04 00:51 -15.11501 -46.58058 32067 ft 464 kts 58°
2026-05-04 00:51 -15.09837 -46.55190 32367 ft 466 kts 58°
2026-05-04 00:51 -15.08158 -46.52297 32654 ft 469 kts 58°
2026-05-04 00:52 -15.06473 -46.49395 32939 ft 471 kts 58°
2026-05-04 00:52 -15.04781 -46.46483 33207 ft 474 kts 58°
2026-05-04 00:52 -15.03078 -46.43552 33479 ft 476 kts 58°
2026-05-04 00:52 -15.01367 -46.40608 33739 ft 479 kts 58°
2026-05-04 00:53 -14.99646 -46.37649 34000 ft 481 kts 58°
2026-05-04 00:53 -14.97939 -46.34714 34243 ft 483 kts 58°
2026-05-04 00:53 -14.96201 -46.31726 34505 ft 485 kts 58°
2026-05-04 00:53 -14.94460 -46.28736 34855 ft 485 kts 58°
2026-05-04 00:54 -14.92721 -46.25750 35246 ft 484 kts 58°
2026-05-04 00:54 -14.91019 -46.22752 35604 ft 483 kts 63°
2026-05-04 00:54 -14.89848 -46.19501 35950 ft 482 kts 73°
2026-05-04 00:54 -14.88831 -46.16202 36217 ft 483 kts 71°
2026-05-04 00:55 -14.87797 -46.12888 36511 ft 482 kts 72°
2026-05-04 00:55 -14.86784 -46.09592 36802 ft 482 kts 72°
2026-05-04 00:55 -14.85772 -46.06288 37119 ft 480 kts 72°
2026-05-04 00:56 -14.83788 -45.99807 37159 ft 472 kts 72°
2026-05-04 00:56 -14.81809 -45.93347 37138 ft 471 kts 72°
2026-05-04 00:57 -14.79825 -45.86882 37138 ft 471 kts 72°
2026-05-04 00:57 -14.77841 -45.80416 37136 ft 471 kts 72°
2026-05-04 00:58 -14.75868 -45.73997 37139 ft 471 kts 72°
2026-05-04 00:58 -14.73878 -45.67533 37138 ft 471 kts 72°
2026-05-04 00:59 -14.71892 -45.61085 37137 ft 471 kts 72°
2026-05-04 00:59 -14.69899 -45.54621 37138 ft 471 kts 72°
2026-05-04 01:00 -14.67906 -45.48165 37130 ft 471 kts 72°
2026-05-04 01:00 -14.65925 -45.41756 37128 ft 471 kts 72°
2026-05-04 01:01 -14.63929 -45.35305 37131 ft 471 kts 72°
2026-05-04 01:01 -14.61932 -45.28855 37128 ft 471 kts 72°
2026-05-04 01:02 -14.59932 -45.22409 37129 ft 471 kts 72°
2026-05-04 01:02 -14.57931 -45.15964 37129 ft 471 kts 72°
2026-05-04 01:03 -14.55929 -45.09520 37128 ft 471 kts 72°
2026-05-04 01:03 -14.53923 -45.03072 37130 ft 472 kts 72°
2026-05-04 01:04 -14.51915 -44.96625 37128 ft 471 kts 72°
2026-05-04 01:04 -14.49908 -44.90187 37125 ft 471 kts 72°
2026-05-04 01:05 -14.47913 -44.83795 37128 ft 471 kts 72°
2026-05-04 01:05 -14.45902 -44.77364 37123 ft 470 kts 72°
2026-05-04 01:06 -14.43891 -44.70941 37120 ft 470 kts 72°
2026-05-04 01:06 -14.41878 -44.64521 37118 ft 470 kts 72°
2026-05-04 01:07 -14.39863 -44.58098 37120 ft 470 kts 72°
2026-05-04 01:07 -14.37846 -44.51676 37120 ft 471 kts 72°
2026-05-04 01:08 -14.36166 -44.46333 37117 ft 470 kts 72°
2026-05-04 01:08 -14.33816 -44.38867 37119 ft 470 kts 72°
2026-05-04 01:09 -14.32123 -44.33494 37114 ft 471 kts 72°
2026-05-04 01:09 -14.30100 -44.27079 37106 ft 469 kts 72°
2026-05-04 01:10 -14.28082 -44.20684 37109 ft 470 kts 72°
2026-05-04 01:10 -14.26058 -44.14278 37112 ft 469 kts 72°
2026-05-04 01:11 -14.24047 -44.07918 37115 ft 470 kts 72°
2026-05-04 01:11 -14.22023 -44.01519 37113 ft 470 kts 72°
2026-05-04 01:12 -14.19995 -43.95117 37108 ft 469 kts 72°
2026-05-04 01:12 -14.17967 -43.88718 37114 ft 470 kts 72°
2026-05-04 01:13 -14.15939 -43.82325 37111 ft 469 kts 72°
2026-05-04 01:13 -14.13908 -43.75930 37099 ft 469 kts 72°
2026-05-04 01:14 -14.11874 -43.69534 37097 ft 469 kts 72°
2026-05-04 01:14 -14.09839 -43.63140 37098 ft 469 kts 71°
2026-05-04 01:15 -14.07803 -43.56748 37101 ft 470 kts 72°
2026-05-04 01:15 -14.05766 -43.50359 37102 ft 469 kts 71°
2026-05-04 01:16 -14.03727 -43.43968 37106 ft 469 kts 71°
2026-05-04 01:16 -14.01684 -43.37571 37099 ft 470 kts 71°
2026-05-04 01:17 -13.99654 -43.31220 37107 ft 470 kts 71°
2026-05-04 01:17 -13.97608 -43.24834 37108 ft 468 kts 71°
2026-05-04 01:18 -13.95565 -43.18464 37104 ft 468 kts 71°
2026-05-04 01:18 -13.93520 -43.12094 37101 ft 468 kts 71°
2026-05-04 01:19 -13.91474 -43.05725 37104 ft 468 kts 71°
2026-05-04 01:19 -13.89439 -42.99399 37102 ft 468 kts 71°
2026-05-04 01:20 -13.87392 -42.93038 37105 ft 468 kts 71°
2026-05-04 01:20 -13.85337 -42.86660 37099 ft 468 kts 71°
2026-05-04 01:21 -13.83297 -42.80339 37100 ft 468 kts 71°
2026-05-04 01:21 -13.81246 -42.73985 37107 ft 468 kts 71°
2026-05-04 01:22 -13.79191 -42.67627 37100 ft 468 kts 71°
2026-05-04 01:22 -13.77135 -42.61273 37101 ft 468 kts 71°
2026-05-04 01:23 -13.75077 -42.54916 37100 ft 467 kts 71°
2026-05-04 01:23 -13.73024 -42.48581 37102 ft 467 kts 71°
2026-05-04 01:24 -13.70980 -42.42279 37099 ft 467 kts 71°
2026-05-04 01:24 -13.68923 -42.35946 37096 ft 466 kts 71°
2026-05-04 01:25 -13.66866 -42.29618 37098 ft 467 kts 71°
2026-05-04 01:25 -13.64803 -42.23276 37096 ft 467 kts 71°
2026-05-04 01:26 -13.62741 -42.16950 37109 ft 467 kts 71°
2026-05-04 01:26 -13.60675 -42.10617 37102 ft 467 kts 71°
2026-05-04 01:27 -13.58607 -42.04288 37100 ft 467 kts 71°
2026-05-04 01:27 -13.56538 -41.97955 37100 ft 467 kts 71°
2026-05-04 01:28 -13.54483 -41.91673 37102 ft 467 kts 71°
2026-05-04 01:28 -13.52409 -41.85337 37098 ft 466 kts 71°
2026-05-04 01:29 -13.50341 -41.79025 37101 ft 467 kts 71°
2026-05-04 01:29 -13.48269 -41.72707 37101 ft 466 kts 71°
2026-05-04 01:30 -13.46196 -41.66392 37093 ft 466 kts 71°
2026-05-04 01:30 -13.44121 -41.60076 37101 ft 467 kts 71°
2026-05-04 01:31 -13.42046 -41.53767 37103 ft 466 kts 71°
2026-05-04 01:31 -13.39969 -41.47454 37096 ft 466 kts 71°
2026-05-04 01:32 -13.37904 -41.41188 37102 ft 466 kts 71°
2026-05-04 01:32 -13.35825 -41.34884 37098 ft 466 kts 71°
2026-05-04 01:33 -13.33744 -41.28581 37108 ft 466 kts 71°
2026-05-04 01:33 -13.31661 -41.22274 37100 ft 466 kts 71°
2026-05-04 01:34 -13.29577 -41.15972 37099 ft 466 kts 71°
2026-05-04 01:34 -13.27495 -41.09677 37109 ft 466 kts 70°
2026-05-04 01:35 -13.25412 -41.03391 37101 ft 465 kts 70°
2026-05-04 01:35 -13.23340 -40.97144 37099 ft 465 kts 71°
2026-05-04 01:36 -13.21254 -40.90858 37096 ft 465 kts 70°
2026-05-04 01:36 -13.19170 -40.84582 37105 ft 465 kts 70°
2026-05-04 01:37 -13.17084 -40.78307 37094 ft 464 kts 70°
2026-05-04 01:37 -13.14998 -40.72023 37087 ft 465 kts 70°
2026-05-04 01:38 -13.12912 -40.65743 37097 ft 464 kts 70°
2026-05-04 01:38 -13.10835 -40.59510 37098 ft 464 kts 70°
2026-05-04 01:39 -13.08745 -40.53245 36374 ft 465 kts 70°
2026-05-04 01:39 -13.07680 -40.50056 35152 ft 478 kts 70°
2026-05-04 01:39 -13.06594 -40.46805 34198 ft 483 kts 70°
2026-05-04 01:39 -13.05507 -40.43548 33562 ft 481 kts 70°
2026-05-04 01:40 -13.04424 -40.40308 32934 ft 478 kts 70°
2026-05-04 01:40 -13.03349 -40.37094 32306 ft 475 kts 70°
2026-05-04 01:40 -13.02278 -40.33896 31631 ft 473 kts 70°
2026-05-04 01:40 -13.01225 -40.30752 30950 ft 471 kts 70°
2026-05-04 01:41 -13.00164 -40.27589 30385 ft 467 kts 70°
2026-05-04 01:41 -12.99113 -40.24454 29804 ft 463 kts 70°
2026-05-04 01:41 -12.98072 -40.21350 29200 ft 459 kts 70°
2026-05-04 01:41 -12.97037 -40.18269 28595 ft 456 kts 70°
2026-05-04 01:42 -12.96007 -40.15203 27993 ft 453 kts 70°
2026-05-04 01:42 -12.94986 -40.12164 27400 ft 450 kts 71°
2026-05-04 01:42 -12.93970 -40.09143 26812 ft 446 kts 71°
2026-05-04 01:42 -12.92962 -40.06146 26224 ft 443 kts 71°
2026-05-04 01:43 -12.91960 -40.03167 25642 ft 439 kts 71°
2026-05-04 01:43 -12.90970 -40.00226 25072 ft 435 kts 71°
2026-05-04 01:43 -12.89986 -39.97303 24509 ft 432 kts 71°
2026-05-04 01:43 -12.89012 -39.94411 23945 ft 428 kts 71°
2026-05-04 01:44 -12.88044 -39.91540 23406 ft 424 kts 71°
2026-05-04 01:44 -12.87086 -39.88699 22873 ft 420 kts 71°
2026-05-04 01:44 -12.86144 -39.85878 22343 ft 416 kts 73°
2026-05-04 01:44 -12.85716 -39.82973 21761 ft 412 kts 91°
2026-05-04 01:45 -12.85747 -39.80059 21347 ft 406 kts 90°
2026-05-04 01:45 -12.85755 -39.77191 20905 ft 400 kts 91°
2026-05-04 01:45 -12.85803 -39.71579 20001 ft 392 kts 91°
2026-05-04 01:46 -12.85831 -39.68803 19568 ft 388 kts 91°
2026-05-04 01:46 -12.85859 -39.66051 19131 ft 384 kts 91°
2026-05-04 01:46 -12.85886 -39.63326 18692 ft 380 kts 91°
2026-05-04 01:46 -12.85914 -39.60624 18278 ft 376 kts 91°
2026-05-04 01:47 -12.85940 -39.57954 17863 ft 373 kts 91°
2026-05-04 01:47 -12.85966 -39.55310 17456 ft 369 kts 91°
2026-05-04 01:47 -12.85991 -39.52694 17046 ft 365 kts 91°
2026-05-04 01:47 -12.86017 -39.50109 16642 ft 361 kts 91°
2026-05-04 01:48 -12.86041 -39.47547 16239 ft 357 kts 91°
2026-05-04 01:48 -12.86065 -39.45013 15848 ft 354 kts 91°
2026-05-04 01:48 -12.86088 -39.42526 15457 ft 351 kts 91°
2026-05-04 01:48 -12.86112 -39.40036 15071 ft 348 kts 91°
2026-05-04 01:49 -12.86134 -39.37563 14676 ft 345 kts 91°
2026-05-04 01:49 -12.86157 -39.35121 14291 ft 342 kts 91°
2026-05-04 01:49 -12.86178 -39.32699 13913 ft 339 kts 91°
2026-05-04 01:49 -12.86200 -39.30295 13533 ft 336 kts 91°
2026-05-04 01:50 -12.86221 -39.27912 13156 ft 333 kts 91°
2026-05-04 01:50 -12.86241 -39.25542 12771 ft 330 kts 91°
2026-05-04 01:50 -12.86262 -39.23201 12399 ft 327 kts 91°
2026-05-04 01:50 -12.86281 -39.20877 12048 ft 324 kts 91°
2026-05-04 01:51 -12.86301 -39.18599 11682 ft 321 kts 91°
2026-05-04 01:51 -12.86321 -39.16317 11315 ft 318 kts 91°
2026-05-04 01:51 -12.86340 -39.14061 10975 ft 315 kts 91°
2026-05-04 01:51 -12.86357 -39.11846 10816 ft 306 kts 91°
2026-05-04 01:52 -12.86375 -39.09705 10670 ft 296 kts 92°
2026-05-04 01:52 -12.86391 -39.07625 10533 ft 287 kts 92°
2026-05-04 01:52 -12.86407 -39.05613 10397 ft 278 kts 92°
2026-05-04 01:52 -12.86423 -39.03668 10267 ft 269 kts 92°
2026-05-04 01:53 -12.86437 -39.01783 10134 ft 260 kts 92°
2026-05-04 01:53 -12.86452 -38.99928 9875 ft 264 kts 92°
2026-05-04 01:53 -12.86466 -38.98027 9585 ft 269 kts 92°
2026-05-04 01:53 -12.86481 -38.96116 9307 ft 271 kts 92°
2026-05-04 01:54 -12.86496 -38.94185 9019 ft 272 kts 92°
2026-05-04 01:54 -12.86511 -38.92253 8732 ft 272 kts 92°
2026-05-04 01:54 -12.86526 -38.90317 8448 ft 271 kts 92°
2026-05-04 01:54 -12.86750 -38.88423 8113 ft 267 kts 109°
2026-05-04 01:55 -12.87362 -38.86633 7818 ft 264 kts 110°
2026-05-04 01:55 -12.87969 -38.84861 7540 ft 261 kts 110°
2026-05-04 01:55 -12.88570 -38.83117 7260 ft 258 kts 110°
2026-05-04 01:55 -12.89168 -38.81391 6945 ft 257 kts 111°
2026-05-04 01:56 -12.89563 -38.80255 6756 ft 255 kts 111°
2026-05-04 01:56 -12.90353 -38.77985 6385 ft 251 kts 111°
2026-05-04 01:56 -12.90741 -38.76871 6200 ft 250 kts 111°
2026-05-04 01:56 -12.91325 -38.75196 5924 ft 247 kts 111°
2026-05-04 01:57 -12.91900 -38.73543 5654 ft 245 kts 111°
2026-05-04 01:57 -12.92470 -38.71906 5392 ft 242 kts 111°
2026-05-04 01:57 -12.92840 -38.70842 5317 ft 237 kts 111°
2026-05-04 01:57 -12.93010 -38.70352 5277 ft 234 kts 111°
2026-05-04 01:58 -12.93559 -38.68778 5183 ft 223 kts 111°
2026-05-04 01:58 -12.94068 -38.67312 5078 ft 208 kts 111°
2026-05-04 01:58 -12.94533 -38.65978 4941 ft 194 kts 111°
2026-05-04 01:58 -12.94974 -38.64709 4820 ft 183 kts 111°
2026-05-04 01:59 -12.95389 -38.63515 4694 ft 172 kts 111°
2026-05-04 01:59 -12.95776 -38.62405 4585 ft 163 kts 111°
2026-05-04 01:59 -12.96136 -38.61288 4528 ft 167 kts 104°
2026-05-04 01:59 -12.96209 -38.60099 4429 ft 168 kts 90°
2026-05-04 02:00 -12.96078 -38.58900 4293 ft 169 kts 85°
2026-05-04 02:00 -12.95825 -38.57320 4088 ft 169 kts 83°
2026-05-04 02:00 -12.95680 -38.56520 3987 ft 168 kts 83°
2026-05-04 02:00 -12.95454 -38.55340 3859 ft 169 kts 82°
2026-05-04 02:01 -12.95226 -38.54173 3728 ft 168 kts 82°
2026-05-04 02:01 -12.94994 -38.53001 3575 ft 167 kts 82°
2026-05-04 02:01 -12.94764 -38.51837 3453 ft 164 kts 82°
2026-05-04 02:01 -12.94539 -38.50701 3295 ft 160 kts 82°
2026-05-04 02:02 -12.94320 -38.49600 3093 ft 156 kts 83°
2026-05-04 02:02 -12.94107 -38.48530 2905 ft 150 kts 82°
2026-05-04 02:02 -12.93903 -38.47501 2732 ft 146 kts 82°
2026-05-04 02:02 -12.93699 -38.46482 2564 ft 146 kts 82°
2026-05-04 02:03 -12.93496 -38.45465 2375 ft 145 kts 82°
2026-05-04 02:03 -12.93294 -38.44456 2172 ft 145 kts 82°
2026-05-04 02:03 -12.93093 -38.43445 1988 ft 145 kts 81°
2026-05-04 02:03 -12.92888 -38.42434 1796 ft 145 kts 81°
2026-05-04 02:04 -12.92688 -38.41422 1606 ft 144 kts 81°
2026-05-04 02:04 -12.92486 -38.40420 1401 ft 143 kts 81°
2026-05-04 02:04 -12.92290 -38.39426 1228 ft 144 kts 81°
2026-05-04 02:04 -12.92090 -38.38425 1023 ft 143 kts 81°
2026-05-04 02:05 -12.91891 -38.37423 832 ft 144 kts 81°
2026-05-04 02:05 -12.91688 -38.36407 643 ft 143 kts 81°
2026-05-04 02:05 -12.91492 -38.35422 456 ft 143 kts 81°
2026-05-04 02:05 -12.91291 -38.34423 255 ft 144 kts 80°
2026-05-04 02:06 -12.91087 -38.33408 71 ft 144 kts 80°
2026-05-04 02:06 -12.90910 -38.32494 50 ft 104 kts 77°
2026-05-04 02:06 -12.90805 -38.31998 49 ft 49 kts 78°
2026-05-04 02:06 -12.90783 -38.31746 50 ft 24 kts 129°
2026-05-04 02:07 -12.90903 -38.31735 56 ft 14 kts 231°
2026-05-04 02:07 -12.90933 -38.31837 56 ft 16 kts 257°
2026-05-04 02:07 -12.90960 -38.31961 55 ft 19 kts 257°
2026-05-04 02:07 -12.90988 -38.32100 56 ft 20 kts 258°
2026-05-04 02:08 -12.91018 -38.32249 55 ft 23 kts 258°
2026-05-04 02:08 -12.91042 -38.32371 55 ft 17 kts 258°
2026-05-04 02:08 -12.91068 -38.32499 55 ft 20 kts 259°
2026-05-04 02:08 -12.91096 -38.32644 55 ft 22 kts 258°
2026-05-04 02:09 -12.91127 -38.32794 52 ft 22 kts 258°
2026-05-04 02:09 -12.91150 -38.32906 50 ft 17 kts 257°
2026-05-04 02:09 -12.91177 -38.33041 47 ft 21 kts 258°
2026-05-04 02:09 -12.91240 -38.33127 46 ft 12 kts 201°
2026-05-04 02:10 -12.91269 -38.33188 46 ft 8 kts 265°
2026-05-04 02:10 -12.91280 -38.33255 46 ft 11 kts 256°
2026-05-04 02:10 -12.91300 -38.33277 46 ft 3 kts 170°
2026-05-04 02:10 -12.91330 -38.33272 46 ft 6 kts 173°
2026-05-04 02:11 -12.91337 -38.33271 46 ft 0 kts 173°